Time,TemperatureF,DewpointF,PressureIn,WindDirection,WindDirectionDegrees,WindSpeedMPH,WindSpeedGustMPH,Humidity,HourlyPrecipIn,Conditions,Clouds,dailyrainin,SoftwareType,DateUTC
2013-03-04 00:21:00,35.0,28.0,29.95,WNW,300,4.0,18.0,74,0.00,,,-99.99,,2013-03-04 08:21:00,
2013-03-04 00:31:00,35.0,28.0,29.95,WNW,300,4.0,18.0,74,0.00,,,-99.99,,2013-03-04 08:31:00,
2013-03-04 00:41:00,35.0,28.0,29.95,WNW,300,4.0,18.0,74,0.00,,,-99.99,,2013-03-04 08:41:00,
2013-03-04 01:21:00,34.0,26.0,29.95,WNW,290,4.0,12.0,73,0.00,,,-99.99,,2013-03-04 09:21:00,
2013-03-04 01:31:00,34.0,26.0,29.95,WNW,290,4.0,12.0,73,0.00,,,-99.99,,2013-03-04 09:31:00,
2013-03-04 01:42:00,34.0,26.0,29.95,WNW,290,4.0,12.0,73,0.00,,,-99.99,,2013-03-04 09:42:00,
2013-03-04 02:21:00,34.0,27.0,29.95,West,280,4.0,13.0,74,0.00,,,-99.99,,2013-03-04 10:21:00,
2013-03-04 02:31:00,34.0,27.0,29.95,West,280,4.0,13.0,74,0.00,,,-99.99,,2013-03-04 10:31:00,
2013-03-04 02:42:00,34.0,27.0,29.95,West,280,4.0,13.0,74,0.00,,,-99.99,,2013-03-04 10:42:00,
2013-03-04 03:21:00,34.0,27.0,29.96,WSW,240,5.0,12.0,76,0.00,,,-99.99,,2013-03-04 11:21:00,
2013-03-04 03:31:00,34.0,27.0,29.96,WSW,240,5.0,12.0,76,0.00,,,-99.99,,2013-03-04 11:31:00,
2013-03-04 03:41:00,34.0,27.0,29.96,WSW,240,5.0,12.0,76,0.00,,,-99.99,,2013-03-04 11:41:00,
2013-03-04 04:22:00,34.0,27.0,30.01,WNW,300,2.0,10.0,75,0.00,,,-99.99,,2013-03-04 12:22:00,
2013-03-04 04:32:00,34.0,27.0,30.01,WNW,300,2.0,10.0,75,0.00,,,-99.99,,2013-03-04 12:32:00,
2013-03-04 04:42:00,34.0,27.0,30.01,WNW,300,2.0,10.0,75,0.00,,,-99.99,,2013-03-04 12:42:00,
2013-03-04 05:21:00,32.0,26.0,30.05,WSW,250,3.0,8.0,78,0.00,,,-99.99,,2013-03-04 13:21:00,
2013-03-04 05:32:00,32.0,26.0,30.05,WSW,250,3.0,8.0,78,0.00,,,-99.99,,2013-03-04 13:32:00,
2013-03-04 05:41:00,32.0,26.0,30.05,WSW,250,3.0,8.0,78,0.00,,,-99.99,,2013-03-04 13:41:00,
2013-03-04 06:22:00,32.0,26.0,30.09,SSW,210,2.0,8.0,78,0.00,,,-99.99,,2013-03-04 14:22:00,
2013-03-04 06:32:00,32.0,26.0,30.09,SSW,210,2.0,8.0,78,0.00,,,-99.99,,2013-03-04 14:32:00,
2013-03-04 06:41:00,32.0,26.0,30.09,SSW,210,2.0,8.0,78,0.00,,,-99.99,,2013-03-04 14:41:00,
2013-03-04 07:21:00,34.0,26.0,30.11,WNW,300,1.0,6.0,71,0.00,,,-99.99,,2013-03-04 15:21:00,
2013-03-04 07:32:00,34.0,26.0,30.11,WNW,300,1.0,6.0,71,0.00,,,-99.99,,2013-03-04 15:32:00,
2013-03-04 07:42:00,34.0,26.0,30.11,WNW,300,1.0,6.0,71,0.00,,,-99.99,,2013-03-04 15:42:00,
2013-03-04 08:21:00,37.0,26.0,30.11,WSW,250,1.0,3.0,63,0.00,,,-99.99,,2013-03-04 16:21:00,
2013-03-04 08:31:00,37.0,26.0,30.11,WSW,250,1.0,3.0,63,0.00,,,-99.99,,2013-03-04 16:31:00,
2013-03-04 08:42:00,37.0,26.0,30.11,WSW,250,1.0,3.0,63,0.00,,,-99.99,,2013-03-04 16:42:00,
2013-03-04 09:22:00,42.0,28.0,30.09,North,360,4.0,8.0,58,0.00,,,-99.99,,2013-03-04 17:22:00,
2013-03-04 09:32:00,42.0,28.0,30.09,North,360,4.0,8.0,58,0.00,,,-99.99,,2013-03-04 17:32:00,
2013-03-04 09:42:00,42.0,28.0,30.09,North,360,4.0,8.0,58,0.00,,,-99.99,,2013-03-04 17:42:00,
2013-03-04 10:21:00,43.0,28.0,30.11,NE,50,1.0,5.0,55,0.00,,,-99.99,,2013-03-04 18:21:00,
2013-03-04 10:32:00,43.0,28.0,30.11,NE,50,1.0,5.0,55,0.00,,,-99.99,,2013-03-04 18:32:00,
2013-03-04 10:42:00,43.0,28.0,30.11,NE,50,1.0,5.0,55,0.00,,,-99.99,,2013-03-04 18:42:00,
2013-03-04 11:21:00,44.0,28.0,30.12,East,80,2.0,5.0,52,0.00,,,-99.99,,2013-03-04 19:21:00,
2013-03-04 11:32:00,44.0,28.0,30.12,East,80,2.0,5.0,52,0.00,,,-99.99,,2013-03-04 19:32:00,
2013-03-04 11:42:00,44.0,28.0,30.12,East,80,2.0,5.0,52,0.00,,,-99.99,,2013-03-04 19:42:00,
2013-03-04 12:21:00,49.0,18.0,30.06,NE,40,2.0,6.0,29,0.00,,,-99.99,,2013-03-04 20:21:00,
2013-03-04 12:32:00,49.0,18.0,30.06,NE,40,2.0,6.0,29,0.00,,,-99.99,,2013-03-04 20:32:00,
2013-03-04 12:42:00,49.0,18.0,30.06,NE,40,2.0,6.0,29,0.00,,,-99.99,,2013-03-04 20:42:00,
2013-03-04 13:21:00,50.0,25.0,30.05,NNE,20,4.0,9.0,38,0.00,,,-99.99,,2013-03-04 21:21:00,
2013-03-04 13:32:00,50.0,25.0,30.05,NNE,20,4.0,9.0,38,0.00,,,-99.99,,2013-03-04 21:32:00,
2013-03-04 13:42:00,50.0,25.0,30.05,NNE,20,4.0,9.0,38,0.00,,,-99.99,,2013-03-04 21:42:00,
2013-03-04 14:22:00,49.0,23.0,30.06,NE,40,3.0,8.0,36,0.00,,,-99.99,,2013-03-04 22:22:00,
2013-03-04 14:32:00,49.0,23.0,30.06,NE,40,3.0,8.0,36,0.00,,,-99.99,,2013-03-04 22:32:00,
2013-03-04 14:42:00,49.0,23.0,30.06,NE,40,3.0,8.0,36,0.00,,,-99.99,,2013-03-04 22:42:00,
2013-03-04 15:21:00,50.0,22.0,30.07,North,10,3.0,8.0,33,0.00,,,-99.99,,2013-03-04 23:21:00,
2013-03-04 15:32:00,50.0,22.0,30.07,North,10,3.0,8.0,33,0.00,,,-99.99,,2013-03-04 23:32:00,
2013-03-04 15:42:00,50.0,22.0,30.07,North,10,3.0,8.0,33,0.00,,,-99.99,,2013-03-04 23:42:00,
2013-03-04 16:21:00,49.0,22.0,30.09,NE,40,3.0,8.0,34,0.00,,,-99.99,,2013-03-05 00:21:00,
2013-03-04 16:32:00,49.0,22.0,30.09,NE,40,3.0,8.0,34,0.00,,,-99.99,,2013-03-05 00:32:00,
2013-03-04 16:41:00,49.0,22.0,30.09,NE,40,3.0,8.0,34,0.00,,,-99.99,,2013-03-05 00:41:00,
2013-03-04 17:21:00,48.0,25.0,30.12,NE,50,2.0,7.0,40,0.00,,,-99.99,,2013-03-05 01:21:00,
2013-03-04 17:32:00,48.0,25.0,30.12,NE,50,2.0,7.0,40,0.00,,,-99.99,,2013-03-05 01:32:00,
2013-03-04 17:41:00,48.0,25.0,30.12,NE,50,2.0,7.0,40,0.00,,,-99.99,,2013-03-05 01:41:00,
2013-03-04 18:21:00,45.0,25.0,30.15,North,0,0.0,1.0,46,0.00,,,-99.99,,2013-03-05 02:21:00,
2013-03-04 18:32:00,45.0,25.0,30.15,North,0,0.0,1.0,46,0.00,,,-99.99,,2013-03-05 02:32:00,
2013-03-04 18:41:00,45.0,25.0,30.15,North,0,0.0,1.0,46,0.00,,,-99.99,,2013-03-05 02:41:00,
2013-03-04 19:22:00,36.0,24.0,30.22,North,-999,0.0,0.0,62,0.00,,,-99.99,,2013-03-05 03:22:00,
2013-03-04 19:32:00,36.0,24.0,30.22,North,-999,0.0,0.0,62,0.00,,,-99.99,,2013-03-05 03:32:00,
2013-03-04 19:41:00,36.0,24.0,30.22,North,-999,0.0,0.0,62,0.00,,,-99.99,,2013-03-05 03:41:00,
2013-03-04 20:21:00,31.0,22.0,30.24,North,-999,0.0,0.0,70,0.00,,,-99.99,,2013-03-05 04:21:00,
2013-03-04 20:32:00,31.0,22.0,30.24,North,-999,0.0,0.0,70,0.00,,,-99.99,,2013-03-05 04:32:00,
2013-03-04 20:42:00,31.0,22.0,30.24,North,-999,0.0,0.0,70,0.00,,,-99.99,,2013-03-05 04:42:00,
2013-03-04 21:22:00,28.0,22.0,30.25,North,-999,0.0,0.0,79,0.00,,,-99.99,,2013-03-05 05:22:00,
2013-03-04 21:31:00,28.0,22.0,30.25,North,-999,0.0,0.0,79,0.00,,,-99.99,,2013-03-05 05:31:00,
2013-03-04 21:42:00,28.0,22.0,30.25,North,-999,0.0,0.0,79,0.00,,,-99.99,,2013-03-05 05:42:00,
2013-03-04 22:22:00,26.0,20.0,30.26,North,-999,0.0,0.0,77,0.00,,,-99.99,,2013-03-05 06:22:00,
2013-03-04 22:31:00,26.0,20.0,30.26,North,-999,0.0,0.0,77,0.00,,,-99.99,,2013-03-05 06:31:00,
2013-03-04 22:41:00,26.0,20.0,30.26,North,-999,0.0,0.0,77,0.00,,,-99.99,,2013-03-05 06:41:00,
2013-03-04 23:21:00,25.0,16.0,30.22,North,-999,0.0,0.0,67,0.00,,,-99.99,,2013-03-05 07:21:00,
2013-03-04 23:31:00,25.0,16.0,30.22,North,-999,0.0,0.0,67,0.00,,,-99.99,,2013-03-05 07:31:00,
2013-03-04 23:41:00,25.0,16.0,30.22,North,-999,0.0,0.0,67,0.00,,,-99.99,,2013-03-05 07:41:00,